TimeMDT,TemperatureF,Dew PointF,Humidity,Sea Level PressureIn,VisibilityMPH,Wind Direction,Wind SpeedMPH,Gust SpeedMPH,PrecipitationIn,Events,Conditions,WindDirDegrees,DateUTC
12:00 AM,18,15,84,29.96,,ENE,11.5,,,,,60,2012-10-10 06:00:00
12:00 AM,17.6,15.3,91,29.96,-9999.0,ENE,11.5,-,N/A,,Unknown,60,2012-10-10 06:00:00
1:00 AM,19.4,17.6,93,29.95,-9999.0,ENE,11.5,-,N/A,,Unknown,70,2012-10-10 07:00:00
2:00 AM,20.7,18.9,93,29.94,-9999.0,ENE,11.5,-,N/A,,Unknown,70,2012-10-10 08:00:00
3:00 AM,22.6,20.8,93,29.94,-9999.0,ENE,6.9,-,N/A,,Unknown,70,2012-10-10 09:00:00
4:00 AM,24.1,22.5,94,29.93,-9999.0,East,8.1,-,0.01,,Unknown,80,2012-10-10 10:00:00
5:00 AM,23.9,21.7,91,29.92,-9999.0,East,9.2,-,N/A,,Unknown,80,2012-10-10 11:00:00
6:00 AM,24,22,88,29.91,,East,10.4,,,,,80,2012-10-10 12:00:00
7:00 AM,24.4,21.9,90,29.91,-9999.0,East,9.2,-,N/A,,Unknown,80,2012-10-10 13:00:00
8:00 AM,25.5,22.5,88,29.91,-9999.0,East,9.2,-,N/A,,Unknown,80,2012-10-10 14:00:00
11:00 AM,28.2,23.7,83,29.89,-9999.0,ESE,12.7,-,N/A,,Unknown,110,2012-10-10 17:00:00
12:00 PM,29,24,74,29.89,,East,8.1,,,,,100,2012-10-10 18:00:00
12:00 PM,28.6,23.9,83,29.89,-9999.0,East,8.1,-,N/A,,Unknown,100,2012-10-10 18:00:00
1:00 PM,28.0,24.3,86,29.88,-9999.0,East,8.1,-,N/A,,Unknown,80,2012-10-10 19:00:00
2:00 PM,27.3,23.5,86,29.88,-9999.0,ENE,9.2,-,N/A,,Unknown,70,2012-10-10 20:00:00
3:00 PM,27.5,23.5,85,29.88,-9999.0,East,8.1,-,N/A,,Unknown,80,2012-10-10 21:00:00
4:00 PM,26.6,23.5,88,29.87,-9999.0,East,5.8,-,N/A,,Unknown,80,2012-10-10 22:00:00
5:00 PM,24.8,22.3,90,29.87,-9999.0,East,8.1,-,N/A,,Unknown,80,2012-10-10 23:00:00
6:00 PM,25,23,87,29.87,,East,6.9,,,,,80,2012-10-11 00:00:00
6:00 PM,25.0,22.6,91,29.87,-9999.0,East,6.9,-,N/A,,Unknown,80,2012-10-11 00:00:00
7:00 PM,25.2,22.5,89,29.86,-9999.0,East,9.2,-,N/A,,Unknown,80,2012-10-11 01:00:00
9:00 PM,25.5,23.0,90,29.84,-9999.0,East,8.1,-,N/A,,Unknown,80,2012-10-11 03:00:00
10:00 PM,25.2,22.6,90,29.83,-9999.0,East,9.2,-,N/A,,Unknown,80,2012-10-11 04:00:00
11:00 PM,25.2,22.3,89,29.81,-9999.0,East,10.4,-,N/A,,Unknown,90,2012-10-11 05:00:00